Date String (YYYY-MM-DD hh:mm:ss) UTC,Instrument flags,absolute air pressure of the measurement (hPa),sample flow rate (lpm),inlet stack bypass flow (lpm),air temperature of the measurement (°C),ambient temperature measured by the external sensor (°C),aerosol sample conditioner tube jacket temperature (°C),OPC LED temperature (°C),internal box temperature (°C),relative humidity of the measurement (%),span deviation,mass concentration of particles derived from Lorenz-Mie calculation of OPC scattering (μg/m³),mass concentration of particles derived from Lorenz-Mie calculation of OPC scattering (μg/m³),mass concentration of particles derived from Lorenz-Mie calculation of OPC scattering (μg/m³)
DateTimeUTC,F1_M11,P_M11,Q1_M11,Q2_M11,T1_M11,T2_M11,T3_M11,T4_M11,T5_M11,U1_M11,ZSPAN_M11,X2_M11,X0_M11,X1_M11
2023-11-12 10:00:00,SystemResetWarning,0832.6,5.00,000.00,023.6,022.5,000.0,032.0,025.0,7.5,0000.0,0001.81,0005.12,0001.24
2023-11-12 10:01:00,SystemResetWarning,0832.5,5.00,000.00,023.6,022.5,000.0,032.0,025.0,7.4,0000.0,0001.78,0005.03,0001.23
2023-11-12 10:02:00,SystemResetWarning,0832.5,5.00,000.00,023.6,022.5,000.0,032.0,025.0,7.3,0000.0,0001.76,0005.00,0001.23
2023-11-12 10:03:00,SystemResetWarning,0832.6,5.00,000.00,023.6,022.5,000.0,032.0,025.0,7.2,0000.0,0001.76,0005.01,0001.22
2023-11-12 10:04:00,SystemResetWarning,0832.6,5.00,000.00,023.6,022.5,000.0,032.0,025.0,7.3,0000.0,0001.69,0004.82,0001.21
2023-11-12 10:05:00,SystemResetWarning,0832.6,5.00,000.00,023.6,022.5,000.0,032.0,025.0,7.3,0000.0,0001.66,0004.46,0001.20
2023-11-12 10:06:00,SystemResetWarning,0832.6,5.00,000.00,023.6,022.5,000.0,032.0,025.0,7.2,0000.0,0001.63,0003.77,0001.19
2023-11-12 10:07:00,SystemResetWarning,0832.6,5.01,000.00,023.6,022.5,000.0,032.0,025.0,7.2,0000.0,0001.60,0003.58,0001.18
2023-11-12 10:08:00,SystemResetWarning,0832.7,5.00,000.00,023.6,022.5,000.0,032.0,025.0,7.2,0000.0,0001.58,0003.31,0001.17
2023-11-12 10:09:00,SystemResetWarning,0832.7,5.00,000.00,023.6,022.5,000.0,032.0,025.0,7.2,0000.0,0001.56,0003.25,0001.16
2023-11-12 10:10:00,SystemResetWarning,0832.7,5.00,000.00,023.6,022.5,000.0,032.0,025.0,7.2,0000.0,0001.53,0003.18,0001.15
2023-11-12 10:11:00,SystemResetWarning,0832.6,5.00,000.00,023.6,022.6,000.0,032.0,025.0,7.3,0000.0,0001.51,0003.14,0001.15
2023-11-12 10:12:00,SystemResetWarning,0832.6,5.00,000.00,023.6,022.6,000.0,032.0,025.0,7.3,0000.0,0001.53,0003.17,0001.16
2023-11-12 10:13:00,SystemResetWarning,0832.6,5.00,000.00,023.6,022.6,000.0,032.0,025.1,7.3,0000.0,0001.54,0003.24,0001.17
2023-11-12 10:14:00,SystemResetWarning,0832.5,5.00,000.00,023.6,022.7,000.0,032.0,025.0,7.3,0000.0,0001.53,0003.21,0001.16
2023-11-12 10:15:00,SystemResetWarning,0832.5,4.99,000.00,023.6,022.7,000.0,032.0,025.1,7.3,0000.0,0001.51,0003.18,0001.15
2023-11-12 10:16:00,SystemResetWarning,0832.6,4.99,000.00,023.6,022.7,000.0,032.0,025.1,7.3,0000.0,0001.49,0003.11,0001.14
2023-11-12 10:17:00,SystemResetWarning,0832.7,5.00,000.00,023.6,022.7,000.0,032.0,025.0,7.3,0000.0,0001.50,0003.11,0001.14
2023-11-12 10:18:00,SystemResetWarning,0832.7,5.01,000.00,023.6,022.7,000.0,032.0,025.0,7.3,0000.0,0001.49,0002.74,0001.14
2023-11-12 10:19:00,SystemResetWarning,0832.7,5.00,000.00,023.6,022.7,000.0,032.0,025.0,7.3,0000.0,0001.49,0003.72,0001.12
2023-11-12 10:20:00,SystemResetWarning,0832.7,5.00,000.00,023.6,022.7,000.0,032.0,025.0,7.2,0000.0,0001.49,0003.86,0001.11
2023-11-12 10:21:00,SystemResetWarning,0832.7,5.00,000.00,023.6,022.7,000.0,032.0,025.0,7.2,0000.0,0001.46,0003.80,0001.11
2023-11-12 10:22:00,SystemResetWarning,0832.7,5.00,000.00,023.6,022.7,000.0,032.0,025.0,7.2,0000.0,0001.49,0003.92,0001.11
2023-11-12 10:23:00,SystemResetWarning,0832.7,5.01,000.00,023.6,022.7,000.0,032.0,025.1,7.2,0000.0,0001.46,0003.85,0001.09
2023-11-12 10:24:00,SystemResetWarning,0832.7,5.00,000.00,023.6,022.7,000.0,032.0,025.1,7.2,0000.0,0001.48,0003.87,0001.08
2023-11-12 10:25:00,SystemResetWarning,0832.7,5.00,000.00,023.6,022.7,000.0,032.0,025.1,7.2,0000.0,0001.47,0003.87,0001.07
2023-11-12 10:26:00,SystemResetWarning,0832.7,4.99,000.00,023.6,022.6,000.0,032.0,025.1,7.2,0000.0,0001.52,0003.97,0001.07
2023-11-12 10:27:00,SystemResetWarning,0832.8,4.99,000.00,023.6,022.6,000.0,032.0,025.1,7.2,0000.0,0001.51,0003.98,0001.07
2023-11-12 10:28:00,SystemResetWarning,0832.7,4.99,000.00,023.6,022.6,000.0,032.0,025.1,7.3,0000.0,0001.52,0004.01,0001.06
2023-11-12 10:29:00,SystemResetWarning,0832.7,5.00,000.00,023.6,022.6,000.0,032.0,025.1,7.2,0000.0,0001.53,0004.08,0001.04
2023-11-12 10:30:00,SystemResetWarning,0832.7,5.01,000.00,023.6,022.7,000.0,032.0,025.1,7.2,0000.0,0001.52,0002.79,0001.03
2023-11-12 10:31:00,SystemResetWarning,0832.8,5.00,000.00,023.6,022.7,000.0,032.0,025.1,7.2,0000.0,0001.51,0002.70,0001.03
2023-11-12 10:32:00,SystemResetWarning,0833.1,5.01,000.00,023.6,022.7,000.0,032.0,025.1,7.2,0000.0,0001.56,0002.79,0001.04
2023-11-12 10:33:00,SystemResetWarning,0832.9,5.00,000.00,023.6,022.7,000.0,032.0,025.1,7.5,0000.0,0001.56,0002.97,0001.04
2023-11-12 10:34:00,SystemResetWarning,0832.9,5.00,000.00,023.6,022.7,000.0,032.0,025.1,7.6,0000.0,0001.56,0003.68,0001.05
2023-11-12 10:35:00,SystemResetWarning,0833.1,4.99,000.00,023.6,022.7,000.0,032.0,025.1,7.6,0000.0,0001.55,0004.22,0001.04
2023-11-12 10:36:00,SystemResetWarning,0833.1,4.99,000.00,023.6,022.7,000.0,032.0,025.1,7.6,0000.0,0001.55,0004.23,0001.04
2023-11-12 10:37:00,SystemResetWarning,0833.1,5.00,000.00,023.6,022.7,000.0,032.0,025.1,7.5,0000.0,0001.50,0004.14,0001.03
2023-11-12 10:38:00,SystemResetWarning,0833.1,5.00,000.00,023.7,022.7,000.0,032.0,025.1,7.5,0000.0,0001.49,0004.11,0001.03
2023-11-12 10:39:00,SystemResetWarning,0833.0,5.00,000.00,023.7,022.8,000.0,032.0,025.1,7.5,0000.0,0001.51,0004.11,0001.05
2023-11-12 10:40:00,SystemResetWarning,0833.0,5.01,000.00,023.7,022.8,000.0,032.0,025.1,7.4,0000.0,0001.56,0004.18,0001.08
2023-11-12 10:41:00,SystemResetWarning,0833.5,5.00,000.00,023.7,022.8,000.0,032.0,025.1,7.2,0000.0,0001.57,0004.07,0001.11
2023-11-12 10:42:00,SystemResetWarning,0833.2,5.01,000.00,023.7,022.8,000.0,032.0,025.1,7.1,0000.0,0001.56,0004.00,0001.12
2023-11-12 10:43:00,SystemResetWarning,0833.0,5.01,000.00,023.7,022.8,000.0,032.0,025.1,7.2,0000.0,0001.55,0003.94,0001.14
2023-11-12 10:44:00,SystemResetWarning,0833.4,4.99,000.00,023.7,022.7,000.0,032.0,025.1,7.3,0000.0,0001.56,0003.90,0001.15
2023-11-12 10:45:00,SystemResetWarning,0833.0,4.99,000.00,023.7,022.7,000.0,032.0,025.1,7.4,0000.0,0001.58,0003.73,0001.16
2023-11-12 10:46:00,SystemResetWarning,0833.1,4.99,000.00,023.7,022.7,000.0,032.0,025.0,7.4,0000.0,0001.59,0002.53,0001.16
2023-11-12 10:47:00,SystemResetWarning,0833.2,5.00,000.00,023.7,022.7,000.0,032.0,025.0,7.4,0000.0,0001.59,0002.42,0001.17
2023-11-12 10:48:00,SystemResetWarning,0833.4,5.00,000.00,023.7,022.7,000.0,032.0,025.1,7.4,0000.0,0001.61,0002.41,0001.18
2023-11-12 10:49:00,SystemResetWarning,0833.1,5.01,000.00,023.7,022.7,000.0,032.0,025.1,7.4,0000.0,0001.65,0002.52,0001.19
2023-11-12 10:50:00,SystemResetWarning,0833.2,5.01,000.00,023.7,022.7,000.0,032.0,025.1,7.3,0000.0,0001.63,0002.49,0001.17
2023-11-12 10:51:00,SystemResetWarning,0833.3,5.00,000.00,023.7,022.7,000.0,032.0,025.1,7.3,0000.0,0001.59,0002.46,0001.15
2023-11-12 10:52:00,SystemResetWarning,0833.4,4.99,000.00,023.7,022.7,000.0,032.0,025.1,7.3,0000.0,0001.59,0002.48,0001.13
2023-11-12 10:53:00,SystemResetWarning,0833.0,5.00,000.00,023.7,022.7,000.0,032.0,025.1,7.2,0000.0,0001.62,0002.56,0001.13
2023-11-12 10:54:00,SystemResetWarning,0833.1,4.99,000.00,023.6,022.7,000.0,032.0,025.1,7.2,0000.0,0001.64,0002.63,0001.13
2023-11-12 10:55:00,SystemResetWarning,0833.1,5.00,000.00,023.6,022.7,000.0,032.0,025.1,7.2,0000.0,0001.60,0002.54,0001.11
2023-11-12 10:56:00,SystemResetWarning,0833.1,5.00,000.00,023.6,022.7,000.0,032.0,025.1,7.3,0000.0,0001.57,0003.49,0001.10
2023-11-12 10:57:00,SystemResetWarning,0833.1,5.00,000.00,023.6,022.7,000.0,032.0,025.1,7.4,0000.0,0001.54,0003.84,0001.09
2023-11-12 10:58:00,SystemResetWarning,0833.3,5.00,000.00,023.6,022.6,000.0,032.0,025.0,7.4,0000.0,0001.51,0003.81,0001.09
2023-11-12 10:59:00,SystemResetWarning,0833.3,5.01,000.00,023.6,022.6,000.0,032.0,025.0,7.3,0000.0,0001.52,0003.98,0001.09
